[[{"header":{"parameterUnit":"m.s-1","parameterCategory":1,"la1":30.2991,"la2":30.254,"lo1":-89.0895,"lo2":-89.0444,"dy":0.0017,"dx":0.0017,"nx":28,"ny":28,"refTime":"2024-07-20T09:00:00:Z","depth":0,"parameterNumber":2,"parameterNumberName":"U-component_of_WINDS"},"data":[0,0,0,0,0,0,0,0,0,0,0,0,0,0,0,0,0,0,0,0,0,0,0,0,0,0,0,0,0,0,0,0,0,0,0,0,0,0,0,0,0,0,0,0,0,0,0,0,0,0,0,0,0,0,0,0,0,0,4.2364,4.2363,0,4.2291,4.229,4.2289,4.2169,4.2167,4.2165,4.2163,4.2087,4.2087,4.2087,0,0,0,0,0,0,0,0,0,0,0,0,0,4.2396,4.2396,4.2364,4.2363,4.2362,4.2291,4.229,4.2289,4.217,4.2167,4.2164,4.2162,4.2087,4.2087,4.2087,0,0,0,0,0,0,0,0,0,0,0,0,0,4.2359,4.2396,4.2364,4.2294,4.2287,4.2291,4.229,4.2289,4.217,4.2167,4.2163,4.216,4.2087,4.2087,4.2087,4.2154,0,0,4.2087,4.2088,0,0,0,0,0,0,0,0,4.2361,4.2358,4.2305,4.2299,4.2291,4.2236,4.2274,4.2244,4.2171,4.2215,4.2163,4.2159,4.2139,4.2135,4.2128,4.2151,4.2147,4.2087,4.2088,4.2088,4.2088,0,0,0,0,0,0,0,4.2364,4.236,4.2335,4.2305,4.2296,4.2265,4.2256,4.2267,4.2196,4.221,4.2202,4.2195,4.2135,4.2129,4.2126,4.2146,4.2087,4.2088,4.2088,4.2088,4.2212,4.2215,0,0,0,0,0,0,4.2377,4.2363,4.2338,4.2333,4.2319,4.2267,4.2257,4.2257,4.2196,4.2183,4.2198,4.2189,4.213,4.2126,4.2123,4.2191,4.2088,4.2088,4.2088,4.2209,4.2213,4.2217,0,0,0,0,0,0,4.2378,4.2376,4.234,4.2346,4.2339,4.227,4.2271,4.2257,4.2251,4.2186,4.2173,4.2205,4.2127,4.2123,4.2146,4.2187,4.2088,4.2088,4.2205,4.221,4.2215,4.2333,0,0,0,0,0,0,4.238,4.2377,4.2403,4.2347,4.2339,4.2366,4.2274,4.2258,4.2251,4.224,4.2189,4.2177,4.2124,4.2146,4.2146,4.2186,4.2088,4.2201,4.2207,4.2213,4.2325,4.2342,4.2356,0,0,0,0,0,4.2381,4.2441,4.2405,4.2403,4.237,4.2369,4.2364,4.2302,4.2256,4.2279,4.2237,4.2179,4.2184,4.215,4.2148,4.2189,4.2198,4.2206,4.2213,4.2318,4.2338,4.2355,0,0,0,0,0,0,4.2504,4.2432,4.2392,4.2435,4.2409,4.2349,4.2378,4.2326,4.2313,4.2303,4.2226,4.2215,4.2247,4.2221,4.2184,4.2247,4.2181,4.2189,4.2262,4.2281,4.2296,4.23,4.2088,0,0,0,0,0,4.2536,4.2542,4.2479,4.2523,4.2512,4.2448,4.2445,4.2399,4.2369,4.2357,4.2316,4.2289,4.2283,4.2281,4.2273,4.2322,4.2306,4.2349,4.2364,4.2377,4.2383,4.24,4.2417,4.2241,4.2241,4.224,0,0,4.2602,4.2564,4.2573,4.2547,4.2521,4.2526,4.2439,4.245,4.2453,4.2359,4.2376,4.2346,4.2309,4.2344,4.2357,4.2323,4.2428,4.2386,4.2397,4.2395,4.2409,4.2426,4.2441,4.2246,4.2245,4.2244,0,0,4.2725,4.2699,4.2729,4.2705,4.2667,4.2623,4.2631,4.2577,4.2553,4.2569,4.2497,4.2499,4.2493,4.2467,4.2454,4.2563,4.2507,4.2563,4.2641,4.2659,4.2673,4.2685,4.2718,4.2732,4.257,4.2571,4.2571,0,4.2812,4.2818,4.2752,4.2766,4.2755,4.2669,4.2698,4.2677,4.2639,4.2632,4.2594,4.258,4.2551,4.2575,4.2601,4.2595,4.2598,4.2567,4.2677,4.2688,4.2698,4.2729,4.2742,4.2577,4.2576,4.2576,4.2575,0,4.2924,4.293,4.2959,4.2922,4.2914,4.2937,4.2871,4.2871,4.2825,4.2785,4.28,4.2761,4.274,4.2743,4.27,4.276,4.2739,4.2691,4.2623,4.2722,4.275,4.2761,4.2587,4.2584,4.2582,4.2581,0,0,4.3122,4.3045,4.3057,4.3036,4.2986,4.2988,4.3005,4.2984,4.2983,4.2959,4.2968,4.2963,4.2915,4.29,4.2853,4.287,4.2951,4.2818,4.2815,4.2839,4.3009,4.3042,4.3058,4.2915,4.2918,4.2919,4.301,0,4.323,4.3253,4.3192,4.323,4.3231,4.3148,4.3162,4.3131,4.3093,4.3087,4.3045,4.304,4.2982,4.2971,4.2984,4.2939,4.2983,4.2932,4.2919,4.2919,4.2926,4.3073,4.3109,4.3197,4.3021,4.3023,4.3024,0,4.336,4.3339,4.3377,4.332,4.3318,4.3332,4.3304,4.3302,4.3264,4.3235,4.3216,4.316,4.3169,4.3107,4.3115,4.3081,4.3072,4.3049,4.3051,4.3044,4.2975,4.3065,4.3224,4.3235,4.3041,4.304,4.3039,0,4.3492,4.3476,4.3494,4.348,4.3416,4.3426,4.34,4.3359,4.3349,4.3326,4.3317,4.3297,4.3284,4.3267,4.3206,4.3167,4.3219,4.3153,4.3192,4.3193,4.3203,4.3203,4.3359,4.3206,4.3206,4.3206,4.3206,0,4.3617,4.3642,4.3552,4.3563,4.3587,4.3516,4.3541,4.3507,4.347,4.3471,4.34,4.3402,4.3322,4.3315,4.3267,4.3278,4.3274,4.3248,4.3234,4.3252,4.3254,4.3242,4.3232,4.3209,4.3208,4.3208,4.3207,0,4.3768,4.371,4.3724,4.3661,4.3646,4.3666,4.3611,4.3617,4.3574,4.3575,4.3571,4.3503,4.349,4.3428,4.3401,4.3368,4.3393,4.337,4.3406,4.3396,4.3436,4.3431,4.3585,4.3599,4.3443,4.3445,4.3446,0,4.3849,4.3866,4.3804,4.3799,4.3776,4.377,4.3758,4.3688,4.3679,4.3635,4.3645,4.3626,4.3607,4.3589,4.3536,4.3513,4.3485,4.354,4.3481,4.3496,4.3479,4.3477,4.3475,4.3552,4.3554,4.3556,4.3557,0,4.3997,4.3967,4.3953,4.3928,4.3916,4.3894,4.3867,4.3867,4.3789,4.3781,4.3766,4.3751,4.3722,4.3702,4.367,4.364,4.3584,4.3577,4.3583,4.3599,4.3617,4.3602,4.3435,4.3573,4.3571,4.357,4.3569,4.3568,4.4112,4.412,4.4077,4.4063,4.4035,4.4011,4.4011,4.3968,4.3954,4.3924,4.3884,4.3873,4.383,4.3781,4.3756,4.3744,4.3713,4.3725,4.3726,4.3729,4.3735,4.3623,4.3739,4.3738,4.3738,4.3737,4.3737,0,4.4251,4.4219,4.4207,4.417,4.4158,4.4108,4.4074,4.4066,4.4058,4.4023,4.4005,4.3985,4.3965,4.3909,4.3882,4.3884,4.3857,4.3878,4.3875,4.3868,4.3768,4.3762,4.39,4.39,4.39,4.39,4.39,4.39,4.4322,4.4332,4.4296,4.429,4.4257,4.4245,4.423,4.4205,4.4177,4.4158,4.414,4.4104,4.406,4.4029,4.4006,4.399,4.3981,4.401,4.3985,4.3892,4.3876,4.3861,4.3855,4.401,4.4011,4.4086,4.4087,4.4087]},{"header":{"parameterUnit":"m.s-1","parameterCategory":1,"la1":30.2991,"la2":30.254,"lo1":-89.0895,"lo2":-89.0444,"dy":0.0017,"dx":0.0017,"nx":28,"ny":28,"refTime":"2024-07-20T09:00:00:Z","depth":0,"parameterNumber":3,"parameterNumberName":"V-component_of_WINDS"},"data":[0,0,0,0,0,0,0,0,0,0,0,0,0,0,0,0,0,0,0,0,0,0,0,0,0,0,0,0,0,0,0,0,0,0,0,0,0,0,0,0,0,0,0,0,0,0,0,0,0,0,0,0,0,0,0,0,0,0,6.0355,6.0356,0,6.045,6.0451,6.0453,6.0475,6.0474,6.0473,6.0473,6.0563,6.0566,6.0569,0,0,0,0,0,0,0,0,0,0,0,0,0,6.0185,6.0188,6.0355,6.0356,6.0357,6.045,6.0452,6.0453,6.0475,6.0474,6.0473,6.0472,6.0562,6.0566,6.0569,0,0,0,0,0,0,0,0,0,0,0,0,0,6.0267,6.0189,6.0354,6.0379,6.0383,6.045,6.0452,6.0453,6.0475,6.0474,6.0473,6.0472,6.0561,6.0565,6.057,6.0617,0,0,6.0584,6.0585,0,0,0,0,0,0,0,0,6.0262,6.0273,6.0375,6.0378,6.0382,6.045,6.0425,6.0508,6.0475,6.044,6.0473,6.0472,6.0526,6.0533,6.0553,6.0621,6.0625,6.0584,6.0587,6.0589,6.059,0,0,0,0,0,0,0,6.0257,6.0269,6.0392,6.0376,6.038,6.0384,6.0395,6.0441,6.0486,6.0443,6.0444,6.0456,6.0527,6.0548,6.0555,6.0626,6.0584,6.0588,6.0591,6.0592,6.0739,6.074,0,0,0,0,0,0,6.0248,6.0264,6.0389,6.0395,6.0319,6.0388,6.04,6.0429,6.0486,6.0494,6.0457,6.0457,6.0541,6.055,6.0558,6.0617,6.0589,6.0593,6.0595,6.0737,6.0739,6.074,0,0,0,0,0,0,6.0244,6.0259,6.0385,6.033,6.0347,6.0392,6.0424,6.0431,6.0452,6.0497,6.0504,6.047,6.0541,6.0552,6.0603,6.0621,6.0595,6.0599,6.0736,6.0738,6.0739,6.0735,0,0,0,0,0,0,6.0239,6.0257,6.0276,6.0331,6.035,6.043,6.0425,6.0434,6.0461,6.0462,6.0512,6.0519,6.0541,6.0596,6.0607,6.0626,6.0602,6.0734,6.0737,6.0739,6.0734,6.0737,6.0739,0,0,0,0,0,6.0233,6.027,6.0277,6.0292,6.0375,6.0431,6.0441,6.0468,6.0462,6.0481,6.051,6.0517,6.0618,6.0601,6.0614,6.0635,6.0733,6.0736,6.0739,6.0733,6.0736,6.0739,0,0,0,0,0,0,6.0213,6.0277,6.0286,6.0342,6.0381,6.0435,6.0459,6.0471,6.051,6.0509,6.0538,6.0549,6.0598,6.0622,6.0602,6.0684,6.0675,6.068,6.0666,6.067,6.0672,6.0665,6.0606,0,0,0,0,0,6.0216,6.0257,6.031,6.0355,6.0374,6.0414,6.0438,6.0456,6.0497,6.0512,6.0545,6.0582,6.0622,6.0648,6.0687,6.0739,6.0749,6.0759,6.0762,6.0764,6.0767,6.0796,6.0801,6.0749,6.0749,6.0749,0,0,6.022,6.026,6.0284,6.0352,6.0384,6.0425,6.0427,6.047,6.05,6.0518,6.0569,6.0594,6.0638,6.0689,6.0714,6.071,6.0785,6.0767,6.0768,6.0771,6.08,6.0805,6.0809,6.0751,6.075,6.075,0,0,6.0249,6.0285,6.0326,6.0359,6.041,6.0436,6.0446,6.0499,6.0517,6.0569,6.0584,6.062,6.0688,6.0719,6.0743,6.0787,6.0795,6.0799,6.0811,6.084,6.0844,6.0848,6.0862,6.0868,6.0803,6.0803,6.0803,0,6.0247,6.0312,6.0345,6.0388,6.0417,6.0439,6.048,6.051,6.0569,6.0588,6.0585,6.0672,6.0703,6.0762,6.0773,6.0793,6.0804,6.0792,6.0841,6.0845,6.0849,6.0864,6.0869,6.0803,6.0803,6.0803,6.0803,0,6.0308,6.0352,6.0379,6.044,6.0472,6.0513,6.0551,6.0579,6.0595,6.0621,6.0674,6.0712,6.076,6.0776,6.079,6.0838,6.0834,6.0836,6.0827,6.0854,6.0868,6.0874,6.0803,6.0803,6.0803,6.0803,0,0,6.0324,6.0405,6.0414,6.0442,6.0501,6.0534,6.0577,6.0627,6.065,6.0691,6.0727,6.0786,6.0789,6.0816,6.0835,6.086,6.0892,6.0858,6.086,6.0862,6.0946,6.0943,6.0949,6.0899,6.09,6.0901,6.0942,0,6.0359,6.0439,6.0471,6.0535,6.0576,6.06,6.0637,6.0676,6.0702,6.074,6.0768,6.0809,6.081,6.0827,6.0853,6.0882,6.0909,6.088,6.093,6.0931,6.0916,6.0957,6.0954,6.099,6.0947,6.0948,6.0949,0,6.0411,6.0456,6.0525,6.058,6.0599,6.0632,6.0681,6.0717,6.0762,6.0779,6.0812,6.083,6.0874,6.0865,6.0926,6.0906,6.0928,6.0946,6.0948,6.0952,6.094,6.096,6.1002,6.1007,6.0958,6.0958,6.0957,0,6.0415,6.0492,6.0544,6.0568,6.0634,6.0656,6.0684,6.0729,6.0757,6.0799,6.0818,6.0864,6.0888,6.0923,6.0952,6.0943,6.101,6.1003,6.1023,6.1023,6.1034,6.1033,6.1079,6.1052,6.1052,6.1052,6.1051,0,6.045,6.0491,6.0547,6.0578,6.0625,6.0661,6.0705,6.0734,6.0774,6.081,6.0833,6.0866,6.0904,6.0941,6.0964,6.1011,6.1022,6.1036,6.1041,6.1033,6.1031,6.1046,6.1043,6.1053,6.1053,6.1052,6.1052,0,6.0461,6.0501,6.0558,6.0618,6.0634,6.0665,6.0715,6.0745,6.0774,6.082,6.0833,6.0877,6.0923,6.0956,6.1014,6.103,6.1079,6.1085,6.1064,6.1067,6.1085,6.1082,6.1142,6.1151,6.1118,6.1119,6.1119,0,6.0481,6.0513,6.0577,6.0605,6.0634,6.0677,6.0708,6.0744,6.0774,6.0829,6.0853,6.0901,6.0941,6.1013,6.1049,6.1093,6.11,6.1118,6.1106,6.1097,6.1098,6.1095,6.1098,6.1118,6.1118,6.1118,6.1119,0,6.051,6.0529,6.0573,6.0625,6.0661,6.0703,6.0744,6.0765,6.0809,6.0841,6.089,6.0922,6.0983,6.1029,6.1078,6.1105,6.1118,6.1123,6.1129,6.112,6.1107,6.1113,6.1067,6.112,6.112,6.112,6.112,6.112,6.0525,6.0556,6.0607,6.0655,6.0691,6.073,6.0763,6.0797,6.0839,6.0894,6.0913,6.0962,6.1007,6.1075,6.1102,6.1141,6.114,6.115,6.1152,6.1154,6.1153,6.1103,6.115,6.115,6.115,6.115,6.115,0,6.0556,6.059,6.0635,6.0694,6.0733,6.0746,6.0793,6.0823,6.0868,6.091,6.0951,6.1006,6.1052,6.1093,6.1141,6.1164,6.1171,6.1175,6.1172,6.1178,6.1151,6.114,6.1168,6.1168,6.1168,6.1168,6.1168,6.1168,6.0576,6.0628,6.0653,6.0723,6.0757,6.0809,6.0834,6.087,6.0904,6.0966,6.1006,6.1034,6.1075,6.1126,6.1169,6.118,6.1195,6.1197,6.1209,6.1182,6.118,6.1178,6.1167,6.1201,6.1201,6.1233,6.1233,6.1233]}]]